"Pseudo-MPEC" for JJDS467

Created 2026 Apr 17 11:35:14 UT using Find_Orb

Click here for an explanation of pseudo-MPECs

 
 Astrometry: 
     JJDS467*KB2026 03 29.07316112 28 05.55 -03 07 00.9    ~3TFZ 20.5 VZNEOCPX09
     JJDS467 KB2026 03 29.20160912 28 01.63 -03 06 41.5    ~3TFZ 21.0 VZNEOCPX09
     JJDS467 KB2026 03 29.32857612 27 57.69 -03 06 23.0    ~3TFZ 21.0 VZNEOCPX09

Station data:
(X09) Deep Random Survey, Rio Hurtado  (S30.526310 W70.853300)  Chile.
   Observers A. Schnabel, D. Ruhela. Measurer S. Deen. 0.43-m reflector +
   CMOS.

Orbital elements:  JJDS467
   Perihelion 2025 Jan 31.950354 +/- 853 TT = 22:48:30.6 (JD 2460707.450354)
Epoch 2026 Mar 29.0 TT = JDT 2461128.5   Ju: 0.2169   Sa: 0.1744   Ur: 0.9092
M   4.950651093 +/- 57              (J2000 ecliptic)             AutoNEOCP
n   0.011757879 +/- 0.048           Peri.  105.470750 +/- 100
a  19.15358354 +/- 52.1             Node     7.053581 +/- 43
e   0.83677566 +/- 0.221            Incl.    4.904739 +/- 54
P  83.82529                H 14.56  G  0.15   U 10.7  SR
q 3.126330945 +/- 1.99    Q 35.18083613 +/- 70.5
From 3 observations 2026 Mar. 29 (6.1 hr); mean residual 0".21
Residuals in arcseconds: 
260329 X09  .17-  .12-    260329 X09  .34+  .25+    260329 X09  .17-  .12-    

Ephemerides (geocentric):
Date (UTC) HH   RA             Dec           delta  r     elong  mag " sig PA
---- --------  ------------   ------------  ------ ------ -----  --- --------
2026 04 17 12  12 19 08.001   -02 23 00.81  3.8996 4.8461 158.2 21.3  25d  87
2026 04 17 13  12 19 06.999   -02 22 55.99  3.9001 4.8463 158.2 21.3  25d  87
2026 04 17 14  12 19 05.999   -02 22 51.18  3.9006 4.8466 158.1 21.3  25d  87
2026 04 17 15  12 19 04.999   -02 22 46.38  3.9011 4.8468 158.1 21.3  25d  87
2026 04 17 16  12 19 04.001   -02 22 41.58  3.9015 4.8471 158.0 21.3  25d  87
2026 04 17 17  12 19 03.003   -02 22 36.78  3.9020 4.8473 158.0 21.3  25d  87
2026 04 17 18  12 19 02.006   -02 22 32.00  3.9025 4.8476 157.9 21.3  25d  87
2026 04 17 19  12 19 01.010   -02 22 27.21  3.9030 4.8478 157.9 21.3  25d  88
2026 04 17 20  12 19 00.014   -02 22 22.43  3.9034 4.8481 157.8 21.3  25d  88
2026 04 17 21  12 18 59.020   -02 22 17.66  3.9039 4.8483 157.8 21.3  25d  88
2026 04 17 22  12 18 58.026   -02 22 12.89  3.9044 4.8485 157.8 21.3  25d  88
2026 04 17 23  12 18 57.034   -02 22 08.12  3.9049 4.8488 157.7 21.3  25d  88
2026 04 18 00  12 18 56.042   -02 22 03.37  3.9053 4.8490 157.7 21.3  25d  88
2026 04 18 01  12 18 55.051   -02 21 58.61  3.9058 4.8493 157.6 21.3  25d  88
2026 04 18 02  12 18 54.061   -02 21 53.86  3.9063 4.8495 157.6 21.3  25d  88
2026 04 18 03  12 18 53.071   -02 21 49.12  3.9068 4.8498 157.5 21.3  25d  88
2026 04 18 04  12 18 52.083   -02 21 44.38  3.9072 4.8500 157.5 21.3  25d  88
2026 04 18 05  12 18 51.096   -02 21 39.65  3.9077 4.8503 157.4 21.3  25d  88
2026 04 18 06  12 18 50.109   -02 21 34.92  3.9082 4.8505 157.4 21.3  25d  88
2026 04 18 07  12 18 49.123   -02 21 30.19  3.9087 4.8507 157.4 21.3  25d  88
2026 04 18 08  12 18 48.139   -02 21 25.48  3.9092 4.8510 157.3 21.3  25d  88
2026 04 18 09  12 18 47.155   -02 21 20.76  3.9096 4.8512 157.3 21.3  25d  88
2026 04 18 10  12 18 46.172   -02 21 16.05  3.9101 4.8515 157.2 21.3  25d  88
2026 04 18 11  12 18 45.190   -02 21 11.35  3.9106 4.8517 157.2 21.3  25d  88
2026 04 18 12  12 18 44.208   -02 21 06.65  3.9111 4.8520 157.1 21.3  25d  88
2026 04 18 13  12 18 43.228   -02 21 01.96  3.9116 4.8522 157.1 21.4  25d  88
2026 04 18 14  12 18 42.248   -02 20 57.27  3.9120 4.8524 157.0 21.4  25d  88
2026 04 18 15  12 18 41.270   -02 20 52.59  3.9125 4.8527 157.0 21.4  25d  88
2026 04 18 16  12 18 40.292   -02 20 47.91  3.9130 4.8529 156.9 21.4  25d  88
2026 04 18 17  12 18 39.315   -02 20 43.24  3.9135 4.8532 156.9 21.4  25d  88
2026 04 18 18  12 18 38.339   -02 20 38.57  3.9140 4.8534 156.9 21.4  25d  88
2026 04 18 19  12 18 37.364   -02 20 33.91  3.9145 4.8537 156.8 21.4  25d  88
2026 04 18 20  12 18 36.390   -02 20 29.26  3.9150 4.8539 156.8 21.4  25d  88
2026 04 18 21  12 18 35.417   -02 20 24.60  3.9154 4.8542 156.7 21.4  25d  88
2026 04 18 22  12 18 34.445   -02 20 19.96  3.9159 4.8544 156.7 21.4  25d  88
2026 04 18 23  12 18 33.473   -02 20 15.32  3.9164 4.8546 156.6 21.4  25d  88
2026 04 19 00  12 18 32.503   -02 20 10.68  3.9169 4.8549 156.6 21.4  25d  88
2026 04 19 01  12 18 31.533   -02 20 06.05  3.9174 4.8551 156.5 21.4  25d  88
2026 04 19 02  12 18 30.564   -02 20 01.43  3.9179 4.8554 156.5 21.4  25d  88
2026 04 19 03  12 18 29.596   -02 19 56.81  3.9184 4.8556 156.5 21.4  25d  88
2026 04 19 04  12 18 28.629   -02 19 52.19  3.9189 4.8559 156.4 21.4  25d  88
2026 04 19 05  12 18 27.663   -02 19 47.58  3.9193 4.8561 156.4 21.4  25d  88
2026 04 19 06  12 18 26.698   -02 19 42.98  3.9198 4.8564 156.3 21.4  25d  88
2026 04 19 07  12 18 25.734   -02 19 38.38  3.9203 4.8566 156.3 21.4  25d  88
2026 04 19 08  12 18 24.771   -02 19 33.79  3.9208 4.8568 156.2 21.4  25d  88
2026 04 19 09  12 18 23.808   -02 19 29.20  3.9213 4.8571 156.2 21.4  25d  88
2026 04 19 10  12 18 22.847   -02 19 24.62  3.9218 4.8573 156.1 21.4  25d  88
2026 04 19 11  12 18 21.886   -02 19 20.04  3.9223 4.8576 156.1 21.4  25d  88